When you browse on this site, cookies collect data to enhance your experience and personalize the content and advertising you see.
Visit our Privacy Policy to learn more. By continuing to use the site, you agree to this use of cookies and data.
  • In United Kingdom
  • List of Countries
  • For 7 days
  • Water Temperature
  • Satellite Maps
  • Weather Map
  • Weather Widgets
  • user-avatar
    Login

    Hourly Weather Adelaide

    Today, 23 July, Tuesday

    Time Temperature Precipitation Wind Pressure Humidity
    00:00 +10°C° 0.2 mm 7 mps 755 mmHg 83%
    01:00 +10°C° 0.3 mm 7 mps 755 mmHg 83%
    02:00 +10°C° 0.3 mm 7 mps 755 mmHg 82%
    03:00 +10°C° 0.3 mm 8 mps 755 mmHg 81%
    04:00 +10°C° 0.2 mm 8 mps 755 mmHg 81%
    05:00 +10°C° 0.2 mm 7 mps 755 mmHg 80%
    06:00 +10°C° 0.2 mm 7 mps 756 mmHg 79%
    07:00 +10°C° 0.1 mm 7 mps 756 mmHg 77%
    08:00 +11°C° 0.1 mm 7 mps 757 mmHg 75%
    09:00 +11°C° 0.1 mm 8 mps 757 mmHg 72%
    10:00 +12°C° 0 mm 8 mps 757 mmHg 71%
    11:00 +12°C° 0 mm 9 mps 757 mmHg 69%
    12:00 +12°C° 0 mm 9 mps 756 mmHg 68%
    13:00 +12°C° 0 mm 9 mps 756 mmHg 70%
    14:00 +12°C° 0 mm 10 mps 756 mmHg 72%
    15:00 +12°C° 0 mm 10 mps 756 mmHg 74%
    16:00 +12°C° 0.6 mm 9 mps 757 mmHg 78%
    17:00 +12°C° 0.6 mm 8 mps 758 mmHg 82%
    18:00 +11°C° 0.6 mm 7 mps 758 mmHg 86%
    19:00 +11°C° 0 mm 6 mps 759 mmHg 85%
    20:00 +10°C° 0 mm 5 mps 760 mmHg 84%
    21:00 +11°C° 0 mm 4 mps 761 mmHg 84%
    22:00 +11°C° 0 mm 4 mps 761 mmHg 83%
    23:00 +11°C° 0 mm 4 mps 761 mmHg 82%

    Tomorrow, 24 July, Wednesday

    Time Temperature Precipitation Wind Pressure Humidity
    00:00 +10°C° 0 mm 3 mps 761 mmHg 82%
    01:00 +10°C° 0 mm 3 mps 762 mmHg 82%
    02:00 +10°C° 0 mm 3 mps 762 mmHg 82%
    03:00 +10°C° 0 mm 2 mps 762 mmHg 82%
    04:00 +10°C° 0 mm 2 mps 762 mmHg 83%
    05:00 +10°C° 0 mm 2 mps 763 mmHg 83%
    06:00 +10°C° 0 mm 2 mps 763 mmHg 84%
    07:00 +11°C° 0 mm 3 mps 764 mmHg 83%
    08:00 +11°C° 0 mm 3 mps 764 mmHg 81%
    09:00 +12°C° 0 mm 3 mps 765 mmHg 80%
    10:00 +13°C° 0 mm 3 mps 765 mmHg 77%
    11:00 +13°C° 0 mm 3 mps 765 mmHg 74%
    12:00 +14°C° 0 mm 3 mps 764 mmHg 72%
    13:00 +14°C° 0 mm 3 mps 764 mmHg 72%
    14:00 +14°C° 0 mm 3 mps 764 mmHg 72%
    15:00 +14°C° 0 mm 3 mps 763 mmHg 73%
    16:00 +13°C° 0 mm 3 mps 764 mmHg 78%
    17:00 +13°C° 0 mm 2 mps 764 mmHg 83%
    18:00 +12°C° 0 mm 2 mps 764 mmHg 89%
    19:00 +12°C° 0 mm 2 mps 764 mmHg 88%
    20:00 +12°C° 0 mm 2 mps 764 mmHg 88%
    21:00 +12°C° 0 mm 2 mps 765 mmHg 88%
    22:00 +12°C° 0 mm 2 mps 764 mmHg 87%
    23:00 +12°C° 0 mm 2 mps 764 mmHg 86%

    Day after tomorrow, 25 July, Thursday

    Time Temperature Precipitation Wind Pressure Humidity
    00:00 +12°C° 0 mm 2 mps 764 mmHg 85%
    01:00 +12°C° 0 mm 2 mps 764 mmHg 85%
    02:00 +11°C° 0 mm 3 mps 764 mmHg 85%
    03:00 +10°C° 0 mm 3 mps 763 mmHg 85%
    04:00 +11°C° 0 mm 3 mps 763 mmHg 83%
    05:00 +11°C° 0 mm 3 mps 763 mmHg 82%
    06:00 +11°C° 0 mm 3 mps 764 mmHg 81%
    07:00 +12°C° 0 mm 3 mps 764 mmHg 79%
    08:00 +12°C° 0 mm 4 mps 764 mmHg 77%
    09:00 +13°C° 0 mm 4 mps 763 mmHg 75%
    10:00 +13°C° 0 mm 4 mps 763 mmHg 73%
    11:00 +14°C° 0 mm 5 mps 762 mmHg 71%
    12:00 +14°C° 0 mm 5 mps 762 mmHg 69%
    13:00 +14°C° 0 mm 4 mps 762 mmHg 71%
    14:00 +14°C° 0 mm 4 mps 761 mmHg 73%
    15:00 +14°C° 0 mm 4 mps 761 mmHg 75%
    16:00 +14°C° 0 mm 3 mps 761 mmHg 78%
    17:00 +14°C° 0 mm 2 mps 761 mmHg 80%
    18:00 +14°C° 0 mm 2 mps 761 mmHg 83%
    19:00 +13°C° 0 mm 2 mps 761 mmHg 83%
    20:00 +12°C° 0 mm 3 mps 760 mmHg 83%
    21:00 +12°C° 0 mm 3 mps 760 mmHg 83%
    22:00 +12°C° 0 mm 3 mps 760 mmHg 82%
    23:00 +12°C° 0 mm 4 mps 760 mmHg 80%

    26 July, Friday

    Time Temperature Precipitation Wind Pressure Humidity
    00:00 +13°C° 0 mm 4 mps 760 mmHg 79%
    01:00 +12°C° 0.1 mm 4 mps 760 mmHg 82%
    02:00 +12°C° 0.1 mm 4 mps 759 mmHg 85%
    03:00 +12°C° 0.1 mm 4 mps 759 mmHg 88%
    04:00 +12°C° 0.3 mm 4 mps 760 mmHg 90%
    05:00 +11°C° 0.3 mm 3 mps 760 mmHg 91%
    06:00 +11°C° 0.3 mm 3 mps 760 mmHg 93%
    07:00 +11°C° 0.4 mm 4 mps 761 mmHg 91%
    08:00 +11°C° 0.4 mm 4 mps 762 mmHg 89%
    09:00 +11°C° 0.4 mm 4 mps 762 mmHg 87%
    10:00 +12°C° 0.1 mm 5 mps 762 mmHg 83%
    11:00 +12°C° 0.1 mm 5 mps 762 mmHg 78%
    12:00 +13°C° 0.1 mm 5 mps 762 mmHg 73%
    13:00 +13°C° 0.1 mm 5 mps 762 mmHg 71%
    14:00 +12°C° 0.1 mm 4 mps 762 mmHg 69%
    15:00 +12°C° 0.1 mm 4 mps 762 mmHg 66%
    16:00 +11°C° 0 mm 4 mps 762 mmHg 68%
    17:00 +10°C° 0 mm 4 mps 763 mmHg 70%
    18:00 +7°C° 0 mm 4 mps 763 mmHg 72%
    19:00 +8°C° 0 mm 3 mps 764 mmHg 73%
    20:00 +7°C° 0 mm 2 mps 764 mmHg 73%
    21:00 +7°C° 0 mm 2 mps 764 mmHg 73%
    22:00 +7°C° 0 mm 2 mps 764 mmHg 75%
    23:00 +8°C° 0 mm 1 mps 764 mmHg 76%

    27 July, Saturday

    Time Temperature Precipitation Wind Pressure Humidity
    00:00 +7°C° 0 mm 1 mps 764 mmHg 78%
    01:00 +7°C° 0 mm 1 mps 764 mmHg 79%
    02:00 +7°C° 0 mm 1 mps 764 mmHg 80%
    03:00 +6°C° 0 mm 2 mps 764 mmHg 81%
    04:00 +6°C° 0 mm 2 mps 764 mmHg 82%
    05:00 +7°C° 0 mm 1 mps 764 mmHg 82%
    06:00 +7°C° 0 mm 1 mps 764 mmHg 83%
    07:00 +8°C° 0 mm 1 mps 764 mmHg 76%
    08:00 +9°C° 0 mm 1 mps 764 mmHg 70%
    09:00 +10°C° 0 mm 1 mps 764 mmHg 63%
    10:00 +11°C° 0 mm 1 mps 764 mmHg 60%
    11:00 +11°C° 0 mm 1 mps 763 mmHg 56%
    12:00 +12°C° 0 mm 2 mps 763 mmHg 52%
    13:00 +12°C° 0 mm 2 mps 763 mmHg 54%
    14:00 +12°C° 0 mm 2 mps 762 mmHg 55%
    15:00 +12°C° 0 mm 2 mps 762 mmHg 57%
    16:00 +11°C° 0 mm 1 mps 762 mmHg 60%
    17:00 +10°C° 0 mm 1 mps 762 mmHg 64%
    18:00 +9°C° 0 mm 1 mps 763 mmHg 67%
    19:00 +8°C° 0 mm 1 mps 763 mmHg 67%
    20:00 +8°C° 0 mm 1 mps 763 mmHg 67%
    21:00 +8°C° 0 mm 1 mps 763 mmHg 67%
    22:00 +8°C° 0 mm 1 mps 763 mmHg 67%
    23:00 +8°C° 0 mm 1 mps 763 mmHg 67%

    28 July, Sunday

    Time Temperature Precipitation Wind Pressure Humidity
    00:00 +8°C° 0 mm 1 mps 763 mmHg 68%
    01:00 +7°C° 0 mm 1 mps 763 mmHg 68%
    02:00 +7°C° 0 mm 1 mps 762 mmHg 68%
    03:00 +7°C° 0 mm 1 mps 762 mmHg 68%
    04:00 +7°C° 0 mm 1 mps 762 mmHg 69%
    05:00 +7°C° 0 mm 1 mps 763 mmHg 70%
    06:00 +7°C° 0 mm 1 mps 763 mmHg 71%
    07:00 +8°C° 0 mm 1 mps 763 mmHg 67%
    08:00 +10°C° 0 mm 1 mps 763 mmHg 63%
    09:00 +10°C° 0 mm 0 mps 763 mmHg 59%
    10:00 +12°C° 0 mm 1 mps 763 mmHg 56%
    11:00 +13°C° 0 mm 1 mps 763 mmHg 54%
    12:00 +14°C° 0 mm 1 mps 762 mmHg 52%
    13:00 +14°C° 0 mm 1 mps 762 mmHg 54%
    14:00 +14°C° 0 mm 1 mps 761 mmHg 55%
    15:00 +13°C° 0 mm 1 mps 761 mmHg 57%
    16:00 +12°C° 0 mm 1 mps 761 mmHg 62%
    17:00 +11°C° 0 mm 1 mps 761 mmHg 66%
    18:00 +10°C° 0 mm 1 mps 762 mmHg 71%
    19:00 +10°C° 0 mm 1 mps 762 mmHg 72%
    20:00 +10°C° 0 mm 1 mps 762 mmHg 73%
    21:00 +10°C° 0 mm 1 mps 762 mmHg 75%
    22:00 +9°C° 0 mm 0 mps 762 mmHg 75%
    23:00 +9°C° 0 mm 0 mps 761 mmHg 75%
    Show more